Flag for U.S.A. Weather past 2 weeks in Warminster Township, Pennsylvania, U.S.A.

Now
55 °F

Clear.


Feels Like: 55 °F
Forecast: 41 / 60 °F
Wind: 3 mph from North

Location: Doylestown Airport


UV Index: 5 (Moderate)

Visibility: 10 mi


Pressure: 30.29 "Hg

Humidity: 29%

Dew point: 23 °F

Location of Warminster TownshipLocation

Historic Weather in Warminster Township

°F

Warminster Township temperature yesterday

Maximum temperature yesterday: 49 °F (at 3:54 PM)
Minimum temperature yesterday: 35 °F (at 12:54 AM)
Average temperature yesterday: 41 °F

Past Weeks' High & Low Weather Summary

 TemperatureHumidityPressure
High78 °F (Apr 13, 2:54 PM)100% (Apr 4, 7:54 PM)30.71 "Hg (Apr 4, 7:54 PM)
Low27 °F (Apr 16, 5:54 AM)19% (Apr 19, 4:54 PM)29.45 "Hg (Apr 8, 12:54 PM)
Average50 °F63%30.06 "Hg
* Reported Apr 4 7:54 PM — Apr 19 7:54 PM, Warminster Township, Weather by CustomWeather, © 2014

Note: Actual official high and low records may vary slightly from our data, if they occured in-between our weather recording intervals... More about our weather records

Advertising

Historic Weather Conditions — Data for Previous 24 hours

 ConditionsComfort  
Time TempWeatherWind HumidityBarometerVisibility
7:54 PM
Apr 19
58 °FSunny.No wind26%30.26 "Hg10 mi
6:54 PM61 °FSunny.5 mph24%30.25 "Hg10 mi
5:54 PM64 °FSunny.8 mph20%30.25 "Hg10 mi
4:54 PM65 °FSunny.10 mph19%30.24 "Hg10 mi
3:54 PM64 °FSunny.6 mph24%30.24 "Hg10 mi
2:54 PM65 °FSunny.9 mph22%30.24 "Hg10 mi
1:54 PM64 °FSunny.10 mph21%30.25 "Hg10 mi
12:54 PM63 °FSunny.12 mph26%30.25 "Hg10 mi
11:54 AM60 °FSunny.10 mph36%30.28 "Hg10 mi
10:54 AM58 °FSunny.7 mph39%30.29 "Hg10 mi
9:54 AM54 °FSunny.8 mph51%30.29 "Hg10 mi
8:54 AM51 °FSunny.9 mph61%30.28 "Hg10 mi
7:54 AM45 °FSunny.3 mph71%30.28 "Hg10 mi
6:54 AM39 °FClear.No wind82%30.26 "Hg10 mi
5:54 AM37 °FClear.No wind93%30.24 "Hg10 mi
4:54 AM37 °FClear.No wind93%30.24 "Hg10 mi
3:54 AM37 °FClear.3 mph93%30.24 "Hg10 mi
2:54 AM38 °FClear.No wind93%30.24 "Hg10 mi
1:54 AM38 °FClear.No wind93%30.26 "Hg10 mi
12:54 AM40 °FClear.No wind86%30.27 "Hg10 mi
11:54 PM
Apr 18
41 °FClear.3 mph82%30.27 "Hg10 mi
10:54 PM43 °FClear.5 mph76%30.29 "Hg10 mi
9:54 PM44 °FClear.No wind68%30.29 "Hg10 mi
Weather by CustomWeather, © 2014

See weather overview